This is the latest recevied weather packets stored in our database for station/object KC3SOZ. If no packets are shown the sender has not sent any weather packets the latest 10 day(s).
| Time | Temp. | Humidity | Pressure | Rain* | Wind** | Luminosity | Snow |
|---|---|---|---|---|---|---|---|
| 1777649666 | 12.78° C | 51% | 1014.8 hPa | 0 mm | - | 772 W/m² | - |
| 1777649361 | 12.78° C | 51% | 1014.5 hPa | 0 mm | - | 742 W/m² | - |
| 1777649059 | 12.78° C | 52% | 1014.6 hPa | 0 mm | - | 722 W/m² | - |
| 1777648756 | 12.22° C | 53% | 1014.6 hPa | 0 mm | - | 745 W/m² | - |
| 1777648453 | 12.22° C | 53% | 1014.6 hPa | 0 mm | - | 699 W/m² | - |
| 1777648149 | 11.67° C | 51% | 1014.6 hPa | 0 mm | - | 583 W/m² | - |
| 1777647845 | 12.22° C | 55% | 1014.6 hPa | 0 mm | - | 526 W/m² | - |
| 1777647542 | 12.22° C | 53% | 1014.9 hPa | 0 mm | - | 620 W/m² | - |
| 1777647238 | 11.67° C | 55% | 1014.8 hPa | 0 mm | - | 579 W/m² | - |
| 1777646936 | 12.22° C | 55% | 1014.8 hPa | 0 mm | - | 691 W/m² | - |
| 1777646631 | 11.67° C | 59% | 1014.9 hPa | 0 mm | - | 680 W/m² | - |
| 1777646327 | 11.67° C | 60% | 1014.9 hPa | 0 mm | - | 650 W/m² | - |
| 1777646024 | 11.67° C | 59% | 1015.2 hPa | 0 mm | - | 651 W/m² | - |
| 1777645721 | 11.67° C | 64% | 1015 hPa | 0 mm | - | 637 W/m² | - |
| 1777645418 | 11.67° C | 65% | 1015.2 hPa | 0 mm | - | 624 W/m² | - |
| 1777645113 | 11.11° C | 64% | 1015.3 hPa | 0 mm | - | 613 W/m² | - |
| 1777644810 | 11.11° C | 63% | 1015.5 hPa | 0 mm | - | 600 W/m² | - |
| 1777644508 | 11.11° C | 63% | 1015.2 hPa | 0 mm | - | 589 W/m² | - |
| 1777644204 | 11.11° C | 65% | 1015.1 hPa | 0 mm | - | 573 W/m² | - |
| 1777643900 | 11.11° C | 67% | 1015.5 hPa | 0 mm | - | 561 W/m² | - |
| 1777643599 | 11.11° C | 67% | 1015.4 hPa | 0 mm | - | 547 W/m² | - |
| 1777643295 | 10.56° C | 69% | 1015.3 hPa | 0 mm | - | 531 W/m² | - |
| 1777642992 | 10° C | 72% | 1015.3 hPa | 0 mm | - | 517 W/m² | - |
| 1777642688 | 10° C | 71% | 1015.3 hPa | 0 mm | - | 505 W/m² | - |
| 1777642386 | 9.44° C | 75% | 1015.3 hPa | 0 mm | - | 488 W/m² | - |
* Rain latest hour (hover to see other rain measurements)
** Current wind speed in m/s (hover to see current wind gust speed)